UAE569 VOBL-OMDB

Flight info

Callsign UAE569
Flight time N/A
Altitude 38000
Route OPAMO8A OPAMO P574 BOLIS/N0479F400 P574 PAROK Q899 ITURA M762 MIVEK P574 IMPED
Aircraft A388/J-SADE2E3FGHIJ3J4J5M1RWXY/LB1D1

Departure

Time 2026-05-08 01:46
Airport Kempegowda International Airport Bengaluru (VOBL)

Arrival

Time N/A
Airport Dubai International Airport (OMDB)
Time Latitude Longitude Altitude Speed Heading
2026-05-08 01:03 13.20094 77.71833 2974 ft 0 kts 180°
2026-05-08 01:33 13.20105 77.71833 2973 ft 4 kts 180°
2026-05-08 01:33 13.20132 77.71834 2974 ft 4 kts 180°
2026-05-08 01:34 13.20153 77.71835 2973 ft 4 kts 194°
2026-05-08 01:34 13.20171 77.71844 2973 ft 4 kts 229°
2026-05-08 01:34 13.20179 77.71864 2973 ft 4 kts 264°
2026-05-08 01:34 13.20180 77.71891 2974 ft 4 kts 272°
2026-05-08 01:35 13.20179 77.71904 2973 ft 0 kts 270°
2026-05-08 01:37 13.20179 77.71896 2973 ft 5 kts 270°
2026-05-08 01:37 13.20179 77.71891 2973 ft 2 kts 269°
2026-05-08 01:37 13.20180 77.71843 2974 ft 6 kts 272°
2026-05-08 01:38 13.20180 77.71833 2973 ft 0 kts 275°
2026-05-08 01:38 13.20181 77.71828 2973 ft 1 kts 281°
2026-05-08 01:38 13.20206 77.71794 2973 ft 10 kts 332°
2026-05-08 01:38 13.20223 77.71787 2973 ft 0 kts 352°
2026-05-08 01:39 13.20343 77.71786 2974 ft 21 kts
2026-05-08 01:39 13.20446 77.71787 2973 ft 12 kts
2026-05-08 01:39 13.20479 77.71785 2973 ft 3 kts 337°
2026-05-08 01:39 13.20514 77.71743 2974 ft 21 kts 291°
2026-05-08 01:40 13.20516 77.71590 2973 ft 22 kts 270°
2026-05-08 01:40 13.20519 77.71424 2971 ft 24 kts 270°
2026-05-08 01:40 13.20516 77.71252 2971 ft 24 kts 269°
2026-05-08 01:40 13.20519 77.71076 2970 ft 25 kts 271°
2026-05-08 01:41 13.20524 77.70895 2970 ft 25 kts 269°
2026-05-08 01:41 13.20523 77.70720 2973 ft 24 kts 274°
2026-05-08 01:41 13.20522 77.70551 2973 ft 24 kts 269°
2026-05-08 01:41 13.20523 77.70380 2975 ft 24 kts 271°
2026-05-08 01:42 13.20529 77.70211 2977 ft 23 kts 272°
2026-05-08 01:42 13.20532 77.70041 2976 ft 26 kts 270°
2026-05-08 01:42 13.20533 77.69854 2976 ft 26 kts 270°
2026-05-08 01:42 13.20535 77.69691 2976 ft 20 kts 271°
2026-05-08 01:43 13.20534 77.69545 2973 ft 22 kts 270°
2026-05-08 01:43 13.20538 77.69384 2972 ft 22 kts 270°
2026-05-08 01:43 13.20539 77.69217 2973 ft 25 kts 270°
2026-05-08 01:43 13.20539 77.69038 2972 ft 26 kts 270°
2026-05-08 01:44 13.20540 77.68853 2973 ft 25 kts 270°
2026-05-08 01:44 13.20541 77.68700 2976 ft 16 kts 270°
2026-05-08 01:44 13.20560 77.68635 2976 ft 5 kts 326°
2026-05-08 01:44 13.20607 77.68623 2975 ft 10 kts 355°
2026-05-08 01:45 13.20689 77.68628 2974 ft 8 kts 31°
2026-05-08 01:45 13.20712 77.68666 2973 ft 6 kts 79°
2026-05-08 01:45 13.20714 77.68689 2974 ft 9 kts 87°
2026-05-08 01:45 13.20712 77.69030 2974 ft 85 kts 91°
2026-05-08 01:46 13.20707 77.69840 2974 ft 139 kts 90°
2026-05-08 01:46 13.20700 77.70964 2986 ft 173 kts 90°
2026-05-08 01:46 13.20675 77.72229 3310 ft 180 kts 91°
2026-05-08 01:46 13.20633 77.73502 3814 ft 175 kts 91°
2026-05-08 01:47 13.20574 77.74754 4251 ft 179 kts 92°
2026-05-08 01:47 13.20541 77.76024 4721 ft 176 kts 91°
2026-05-08 01:47 13.20507 77.77341 4827 ft 195 kts 90°
2026-05-08 01:48 13.21544 77.80161 5330 ft 239 kts 43°
2026-05-08 01:48 13.23042 77.81091 5710 ft 263 kts 26°
2026-05-08 01:48 13.24607 77.81833 6145 ft 276 kts 29°
2026-05-08 01:48 13.26177 77.82650 6828 ft 279 kts 27°
2026-05-08 01:49 13.27997 77.83323 7641 ft 281 kts 14°
2026-05-08 01:49 13.29970 77.83465 8413 ft 286 kts
2026-05-08 01:49 13.31957 77.83295 9137 ft 290 kts 351°
2026-05-08 01:49 13.33775 77.82658 9863 ft 295 kts 336°
2026-05-08 01:50 13.35583 77.81595 10412 ft 306 kts 332°
2026-05-08 01:50 13.37486 77.80480 10609 ft 324 kts 333°
2026-05-08 01:50 13.39356 77.79399 10789 ft 341 kts 333°
2026-05-08 01:50 13.41444 77.78189 11345 ft 346 kts 333°
2026-05-08 01:51 13.43406 77.77046 12013 ft 346 kts 333°
2026-05-08 01:51 13.45464 77.75842 12667 ft 349 kts 332°
2026-05-08 01:51 13.47579 77.74609 13268 ft 353 kts 332°
2026-05-08 01:51 13.49736 77.73350 13866 ft 357 kts 332°
2026-05-08 01:52 13.51757 77.72172 14425 ft 360 kts 329°
2026-05-08 01:52 13.53871 77.70848 14979 ft 346 kts 321°
2026-05-08 01:52 13.55749 77.69472 15207 ft 324 kts 317°
2026-05-08 01:52 13.57564 77.68137 15168 ft 314 kts 321°
2026-05-08 01:53 13.59370 77.66918 15084 ft 315 kts 314°
2026-05-08 01:53 13.61019 77.65377 14819 ft 328 kts 309°
2026-05-08 01:53 13.62551 77.63543 14715 ft 350 kts 299°
2026-05-08 01:53 13.63874 77.61370 14758 ft 365 kts 292°
2026-05-08 01:54 13.64723 77.58891 14825 ft 371 kts 278°
2026-05-08 01:54 13.65323 77.56324 14720 ft 370 kts 292°
2026-05-08 01:54 13.66628 77.54068 14764 ft 367 kts 312°
2026-05-08 01:54 13.68590 77.52403 15000 ft 367 kts 332°
2026-05-08 01:55 13.70990 77.51533 15565 ft 369 kts 351°
2026-05-08 01:55 13.73565 77.51506 16130 ft 373 kts
2026-05-08 01:55 13.76127 77.52060 16637 ft 378 kts 13°
2026-05-08 01:55 13.78689 77.52740 17132 ft 383 kts 12°
2026-05-08 01:56 13.81344 77.53055 17584 ft 387 kts 357°
2026-05-08 01:56 13.84010 77.52640 18000 ft 391 kts 342°
2026-05-08 01:56 13.86561 77.51667 18508 ft 392 kts 334°
2026-05-08 01:56 13.89013 77.50410 19006 ft 394 kts 330°
2026-05-08 01:57 13.91392 77.49048 19474 ft 397 kts 329°
2026-05-08 01:57 13.93800 77.47620 19930 ft 400 kts 328°
2026-05-08 01:57 13.96158 77.46218 20368 ft 403 kts 329°
2026-05-08 01:57 13.98675 77.44727 20803 ft 407 kts 329°
2026-05-08 01:58 14.01140 77.43275 21237 ft 409 kts 329°
2026-05-08 01:58 14.03617 77.41820 21683 ft 411 kts 329°
2026-05-08 01:58 14.06115 77.40354 22088 ft 414 kts 329°
2026-05-08 01:58 14.08630 77.38878 22479 ft 417 kts 329°
2026-05-08 01:59 14.11154 77.37396 22862 ft 419 kts 329°
2026-05-08 01:59 14.13697 77.35903 23242 ft 422 kts 329°
2026-05-08 01:59 14.16253 77.34402 23596 ft 425 kts 329°
2026-05-08 01:59 14.18826 77.32890 23952 ft 427 kts 329°
2026-05-08 02:00 14.21416 77.31367 24310 ft 429 kts 329°
2026-05-08 02:00 14.24020 77.29836 24644 ft 432 kts 329°
2026-05-08 02:00 14.26641 77.28295 24976 ft 434 kts 329°
2026-05-08 02:00 14.29226 77.26776 25308 ft 436 kts 329°
2026-05-08 02:01 14.31879 77.25214 25617 ft 439 kts 329°
2026-05-08 02:01 14.34566 77.23633 25962 ft 441 kts 329°
2026-05-08 02:01 14.37207 77.22078 26309 ft 443 kts 329°
2026-05-08 02:01 14.39888 77.20497 26625 ft 446 kts 329°
2026-05-08 02:02 14.42591 77.18906 26969 ft 448 kts 329°
2026-05-08 02:02 14.45313 77.17305 27295 ft 451 kts 329°
2026-05-08 02:02 14.48043 77.15696 27644 ft 453 kts 329°
2026-05-08 02:02 14.50788 77.14076 27992 ft 455 kts 329°
2026-05-08 02:03 14.53551 77.12447 28342 ft 458 kts 329°
2026-05-08 02:03 14.56285 77.10751 28694 ft 460 kts 323°
2026-05-08 02:03 14.58693 77.08631 29059 ft 461 kts 312°
2026-05-08 02:03 14.60706 77.06061 29440 ft 462 kts 302°
2026-05-08 02:04 14.62263 77.03173 29866 ft 462 kts 295°
2026-05-08 02:04 14.63738 77.00200 30238 ft 466 kts 296°
2026-05-08 02:04 14.65237 76.97224 30658 ft 469 kts 296°
2026-05-08 02:04 14.66751 76.94227 31063 ft 472 kts 296°
2026-05-08 02:05 14.68271 76.91212 31445 ft 475 kts 296°
2026-05-08 02:05 14.69801 76.88171 31840 ft 478 kts 296°
2026-05-08 02:05 14.71338 76.85113 32234 ft 481 kts 296°
2026-05-08 02:05 14.72883 76.82036 32597 ft 484 kts 296°
2026-05-08 02:06 14.74432 76.78954 32986 ft 486 kts 296°
2026-05-08 02:06 14.75996 76.75837 33344 ft 489 kts 296°
2026-05-08 02:06 14.77549 76.72737 33699 ft 492 kts 296°
2026-05-08 02:06 14.79147 76.69546 34065 ft 495 kts 296°
2026-05-08 02:07 14.80713 76.66418 34419 ft 498 kts 296°
2026-05-08 02:07 14.82305 76.63239 34827 ft 499 kts 296°
2026-05-08 02:07 14.83897 76.60056 35307 ft 498 kts 296°
2026-05-08 02:07 14.85490 76.56874 35847 ft 497 kts 296°
2026-05-08 02:08 14.87068 76.53716 36348 ft 496 kts 297°
2026-05-08 02:08 14.88652 76.50550 36805 ft 495 kts 296°